Regional Weather Roundup
Issued by NWS

Home | Current Version | Previous Version | Graphics & Text | Print | Product List | Glossary Off
Versions: 1 2 3 4 5 6 7 8 9 10 11 12 13 14 15 16 17 18 19 20 21 22 23 24 25 26 27 28 29 30 31 32 33 34 35 36 37 38 39 40 41 42 43 44 45 46 47 48 49 50

000
ASUS43 KLSX 190359
RWRMO

WEATHER SUMMARY FOR MISSOURI
NATIONAL WEATHER SERVICE SPRINGFIELD MO
1100 PM CDT FRI APR 18 2014

NOTE: "FAIR" INDICATES FEW OR NO CLOUDS BELOW 12,000 FEET WITH NO
       SIGNIFICANT WEATHER AND/OR OBSTRUCTIONS TO VISIBILITY.
       CURRENT SKY AND/OR WEATHER CONDITIONS ARE NOT AVAILABLE FOR
       CHILLICOTHE AND FARMINGTON.

MOZ001>031-035>038-043-044-053-054-190500-
...NORTHERN AND WESTERN MISSOURI...

CITY           SKY/WX    TMP DP  RH WIND       PRES   REMARKS
KANSAS CTY INT PTCLDY    54  41  61 SE8       30.18R
KANSAS C DTWN  CLEAR     61  42  49 SE9       30.17R
LEE`S SUMMIT   PTCLDY    57  41  55 SE5       30.19R
ST JOSEPH      PTCLDY    55  41  59 SE3       30.16S
CHILLICOTHE      N/A     56  42  59 SE3       30.21S
KIRKSVILLE     CLEAR     52  35  52 E6        30.23R

$$
MOZ066>068-077>081-088>096-101>105-190500-
...SOUTHWEST MISSOURI...

CITY           SKY/WX    TMP DP  RH WIND       PRES   REMARKS
SPRINGFIELD    CLEAR     56  41  57 SE6       30.19R
JOPLIN         CLEAR     54  42  64 SE5       30.18R

$$
MOZ032>034-039>042-045>050-055>058-069>072-190500-
...CENTRAL MISSOURI...

CITY           SKY/WX    TMP DP  RH WIND       PRES   REMARKS
COLUMBIA       CLEAR     55  41  59 E7        30.22R
JEFFERSON CITY CLEAR     52  43  71 S3        30.22R
ROLLA          CLEAR     54  40  59 E8        30.21S
SEDALIA        CLEAR     56  42  59 SE6       30.21R
OSAGE BEACH    CLEAR     59  36  41 E3        30.23R

$$
MOZ051-052-059>065-190500-
...EAST CENTRAL MISSOURI...

CITY           SKY/WX    TMP DP  RH WIND       PRES   REMARKS
ST LOUIS INTL  CLEAR     57  40  52 E3        30.25S
SPIRIT OF STL  CLEAR     50  42  74 CALM      30.24R
ST CHARLES     CLEAR     51  45  79 E6        30.24S

$$
MOZ072>076-082>087-097>100-106>115-190500-
...SOUTH CENTRAL AND SOUTHEAST MISSOURI...

CITY           SKY/WX    TMP DP  RH WIND       PRES   REMARKS
CAPE GIRARDEAU CLEAR     56  45  66 CALM      30.21S
FARMINGTON     CLEAR     54  41  62 CALM      30.25F
POPLAR BLUFF   CLEAR     58  46  64 NE5       30.20S
WEST PLAINS    CLEAR     58  42  55 CALM      30.22R

$$



USA.gov is the U.S. government's official web portal to all federal, state and local government web resources and services.